Starlink 32551

operational
NORAD ID: 62166 Int'l Des: 2024-225 Owner: SPXS Country: US Constellation: starlink
LEOCIRCULAR

Über Starlink 32551

Beschreibung wird geladen...

Live-Position

3D-Globus wird geladen...

Nächste Überflüge

Höhenverlauf

Altitude vs Time

uPlot chart will show altitude changes over time

Zweizeiliger Elementsatz

1 62166U 24225D 26035.02176933 .00007258 00000-0 61498-3 0 9996
2 62166 69.9984 249.2773 0004641 263.7061 96.3569 14.98356772 64833
Epoch: 4. Feb. 2026 • Age: 13 hours

Aktueller Status

Höhe 585.4 km
Geschwindigkeit 7.57 km/s
Subsatellitenpunkt 64.41°N, 36.83°E
Startdatum 30. Nov. 2024
Alter 1.1 years
Typ internet

Technische Details

Klassifizierung Payload
Masse 730.00 kg
Trockenmasse 700.00 kg
Gesamtmasse 730.00 kg
Länge 0.30 m
Durchmesser 4.10 m
Spannweite 29.00 m
Form Box + pan
Hersteller SPXS
Bus-Typ Starlink V2M
Phasenstatus In Orbit
Besitzer/Staat SPXS/US

Große Konstellationen

Loading constellations...